Location: Borojevi?i
(45.0486°N, 16.2297°E)
Time: 00:11:28
(UTC+00:00)

Cosmos 2082 Rocket - Pass Details

Date: 08 August 2020
Orbit: 835 x 852 km, 71.0° (Epoch: 23 September)

Event Time Altitude Azimuth Distance (km) Brightness Sun altitude
Rises 20:01:40 0° 200° (SSW) 3,401 5.1 -16.8°
Reaches altitude 10° 20:04:07 10° 199° (SSW) 2,467 4.4 -17.2°
Maximum altitude 20:09:47 80° 114° (ESE) 864 2.1 -17.8°
Drops below altitude 10° 20:15:28 10° 28° (NNE) 2,473 4.9 -18.5°
Sets 20:17:55 0° 27° (NNE) 3,410 5.6 -18.8°
